Location: Alfortville
(48.8058°N, 2.4204°E)
Time: 11:24:18
(UTC+00:00)

ARIANE 6 FM1 Upper Stage - Pass Details

Date: 21 December 2025
Orbit: 522 x 610 km, 62.0° (Epoch: 20 January)

Event Time Altitude Azimuth Distance (km) Brightness Sun altitude
Exits shadow 05:01:06 43° 42° (NE) 751 3.4 -25.0°
Drops below altitude 10° 05:03:51 10° 44° (NE) 1,771 5.6 -24.6°
Sets 05:06:02 0° 45° (NE) 2,660 6.6 -24.2°
